TimeEST,TemperatureF,Dew PointF,Humidity,Sea Level PressureIn,VisibilityMPH,Wind Direction,Wind SpeedMPH,Gust SpeedMPH,PrecipitationIn,Events,Conditions,WindDirDegrees,DateUTC
12:51 AM,51.1,50.0,96,30.02,4.0,South,6.9,-,N/A,,Overcast,190,2013-01-14 05:51:00
1:07 AM,51.8,50.0,94,30.01,2.0,SSW,5.8,-,N/A,,Overcast,200,2013-01-14 06:07:00
1:51 AM,52.0,51.1,97,30.01,1.8,SSW,8.1,-,N/A,,Overcast,210,2013-01-14 06:51:00
1:59 AM,51.8,51.8,100,30.02,2.5,SW,6.9,-,N/A,,Overcast,220,2013-01-14 06:59:00
2:16 AM,51.8,51.8,100,30.02,3.0,SW,6.9,-,N/A,,Overcast,220,2013-01-14 07:16:00
2:39 AM,51.8,51.8,100,30.02,4.0,SW,9.2,-,N/A,,Overcast,220,2013-01-14 07:39:00
2:51 AM,53.1,51.1,93,30.01,6.0,SW,9.2,-,N/A,,Overcast,220,2013-01-14 07:51:00
3:51 AM,52.0,50.0,93,30.00,10.0,SW,11.5,-,N/A,,Overcast,220,2013-01-14 08:51:00
4:51 AM,52.0,50.0,93,29.99,10.0,SSW,5.8,-,N/A,,Overcast,200,2013-01-14 09:51:00
5:51 AM,51.1,50.0,96,30.00,10.0,SSW,8.1,-,N/A,,Overcast,200,2013-01-14 10:51:00
6:51 AM,51.1,50.0,96,29.99,7.0,South,8.1,-,N/A,,Overcast,190,2013-01-14 11:51:00
7:22 AM,50.0,50.0,100,29.95,1.5,South,11.5,-,N/A,,Overcast,170,2013-01-14 12:22:00
7:31 AM,50.0,50.0,100,29.95,1.2,South,10.4,-,N/A,,Overcast,190,2013-01-14 12:31:00
7:40 AM,51.8,50.0,94,29.94,0.5,South,11.5,-,N/A,Fog,Fog,170,2013-01-14 12:40:00
7:51 AM,51.1,50.0,96,29.96,0.5,SSW,9.2,-,N/A,Fog,Fog,210,2013-01-14 12:51:00
8:04 AM,51.8,50.0,94,29.95,0.2,SSW,10.4,-,N/A,Fog,Fog,200,2013-01-14 13:04:00
8:29 AM,51.8,51.8,100,29.99,1.0,WNW,6.9,-,0.00,,Overcast,300,2013-01-14 13:29:00
8:43 AM,53.6,51.8,94,30.00,7.0,West,10.4,16.1,0.00,,Overcast,260,2013-01-14 13:43:00
8:51 AM,53.1,51.1,93,30.02,10.0,WSW,15.0,24.2,0.00,,Overcast,250,2013-01-14 13:51:00
9:01 AM,53.6,51.8,94,30.02,10.0,WSW,15.0,-,N/A,,Overcast,250,2013-01-14 14:01:00
9:51 AM,55.4,53.6,94,30.00,10.0,WSW,5.8,-,N/A,,Overcast,240,2013-01-14 14:51:00
10:51 AM,57.0,53.1,87,30.02,10.0,West,11.5,-,N/A,,Overcast,280,2013-01-14 15:51:00
11:04 AM,57.2,53.6,88,30.02,10.0,West,10.4,-,N/A,,Mostly Cloudy,280,2013-01-14 16:04:00
11:51 AM,57.0,52.0,83,30.02,10.0,WNW,5.8,-,N/A,,Mostly Cloudy,290,2013-01-14 16:51:00
12:09 PM,57.2,51.8,82,30.01,10.0,NW,5.8,-,N/A,,Mostly Cloudy,310,2013-01-14 17:09:00
12:51 PM,59.0,50.0,72,30.01,10.0,West,8.1,-,N/A,,Mostly Cloudy,280,2013-01-14 17:51:00
1:51 PM,61.0,46.9,60,30.04,10.0,WNW,11.5,-,N/A,,Scattered Clouds,290,2013-01-14 18:51:00
2:51 PM,57.9,39.9,51,30.07,10.0,WNW,15.0,20.7,N/A,,Mostly Cloudy,300,2013-01-14 19:51:00
3:51 PM,55.0,32.0,42,30.11,10.0,NW,15.0,20.7,N/A,,Mostly Cloudy,310,2013-01-14 20:51:00
4:51 PM,53.1,30.0,41,30.12,10.0,NW,6.9,-,N/A,,Mostly Cloudy,320,2013-01-14 21:51:00
5:51 PM,51.1,30.0,44,30.13,10.0,NW,9.2,-,N/A,,Mostly Cloudy,310,2013-01-14 22:51:00
6:51 PM,48.9,28.9,46,30.14,10.0,WNW,8.1,-,N/A,,Mostly Cloudy,300,2013-01-14 23:51:00
7:51 PM,48.0,28.9,48,30.17,10.0,NW,9.2,-,N/A,,Mostly Cloudy,310,2013-01-15 00:51:00
8:51 PM,46.9,28.0,48,30.21,10.0,NNW,11.5,-,N/A,,Overcast,330,2013-01-15 01:51:00
9:51 PM,45.0,28.0,52,30.19,10.0,North,10.4,-,0.00,Rain,Light Rain,350,2013-01-15 02:51:00
10:51 PM,42.1,30.9,65,30.22,10.0,NNW,10.4,-,0.01,Rain,Light Rain,330,2013-01-15 03:51:00
11:51 PM,39.9,30.9,70,30.26,10.0,NNW,8.1,-,0.00,Rain,Light Rain,330,2013-01-15 04:51:00